Regional Weather Roundup
Issued by NWS Cleveland, OH

Home | Current Version | Previous Version | Text Only | Print | Product List | Glossary Off
Versions: 1 2 3 4 5 6 7 8 9 10 11 12 13 14 15 16 17 18 19 20 21 22 23 24 25 26 27 28 29 30 31 32 33 34 35 36 37 38 39 40 41 42 43 44 45 46 47 48 49 50

638
ASUS41 KCLE 232010
RWRCLE
OHIO REGIONAL WEATHER ROUNDUP
NATIONAL WEATHER SERVICE WILMINGTON, OH
300 PM EST THU FEB 23 2017

NOTE: "FAIR" INDICATES FEW OR NO CLOUDS BELOW 12,000 FEET WITH NO
SIGNIFICANT WEATHER AND/OR OBSTRUCTIONS TO VISIBILITY.

OHZ001>008-015>018-024>027-034-035-043-044-232100-
   NORTHWEST OHIO

CITY           SKY/WX    TMP DP  RH WIND       PRES   REMARKS
DEFIANCE       FAIR      65  46  50 VRB5      29.75R
FINDLAY        CLOUDY    65  52  62 W13       29.74S
TOLEDO EXPRESS FAIR      67  47  48 W8        29.74R
TOLEDO EXEC    FAIR      68  47  46 W9        29.74R
LIMA           FAIR      64  56  75 W8        29.75S
$$

OHZ009>014-019>023-028>033-038-089-232100-
   NORTHEAST OHIO

CITY           SKY/WX    TMP DP  RH WIND       PRES   REMARKS
CLE-HOPKINS    PTSUNNY   67  52  58 SW13G24   29.78S
CLE-LAKEFRONT  PTSUNNY   54  48  80 SW3       29.76R
CUY CO. ARPT   PTSUNNY   61  54  77 NW12      29.76F
LORAIN-ELYRIA  FAIR      64  52  64 W14       29.76F
ASHTABULA      PTSUNNY   62  53  72 NW12      29.76R
AKRON-CANTON   PTSUNNY   67  52  58 W12       29.77R
WOOSTER        FAIR      68  54  60 W14       29.76S
MANSFIELD      FAIR      67  54  63 SW13G20   29.76S
YOUNGSTOWN     PTSUNNY   67  53  61 SW14G23   29.76S
$$

OHZ042-051>053-060>062-070>072-077>081-232100-
  SOUTHWEST OHIO

CITY           SKY/WX    TMP DP  RH WIND       PRES   REMARKS
CINC-COVINGTON CLOUDY    68  56  65 S13       29.76S
CINC-LUNKEN    PTSUNNY   69  56  62 SW17      29.75F
HAMILTON       CLOUDY    70  57  63 SW8       29.75F
DAYTON         PTSUNNY   70  54  56 SW12G20   29.75S
WRIGHT-PAT AFB PTSUNNY   69  56  64 S15       29.74S
DAYTON GENERAL CLOUDY    68  55  63 SW9       29.75S
WILMINGTON     FAIR      67  57  70 S9        29.76F
$$

OHZ036-037-039>041-045>050-054>059-063>069-073>076-082>088-232100-
  CENTRAL AND SOUTHEAST OHIO

CITY           SKY/WX    TMP DP  RH WIND       PRES   REMARKS
COLUMBUS       PTSUNNY   72  53  51 SW16      29.76S
OSU AIRPORT    FAIR      68  56  65 S14G22    29.75F
BOLTON FIELD   PTSUNNY   68  55  64 SW12G20   29.77F
RICKENBACK AFB FAIR      69  56  63 W15G21    29.76S
NEWARK         PTSUNNY   69  55  60 SW9       29.76S
MARION         PTSUNNY   68  52  56 W13       29.76S
LANCASTER      FAIR      71  56  58 SW9       29.77F
ZANESVILLE     PTSUNNY   71  53  52 S14       29.77F
NEW PHILLY     CLOUDY    68  54  60 W8        29.78S
$$




USA.gov is the U.S. government's official web portal to all federal, state and local government web resources and services.